Theta_e
295 295 296 297 298 299 300 301 301 302 302 302 302 302 302 302 302 295 290 291 287 282 283 284 285 283 283 284 280 279 281 280 280 278 278 275 274 272 271 271 271 272 272 269 271 270 270 275 275 273 276 276 275 274
294 294 295 295 296 297 299 300 300 301 301 302 302 302 302 302 302 298 287 291 290 283 281 286 287 287 286 286 283 280 281 279 282 277 276 273 270 268 270 270 273 270 273 270 274 273 275 276 278 279 279 277 276 276
293 294 294 295 294 296 297 299 299 300 301 301 301 301 302 302 301 298 290 288 288 282 280 282 282 286 288 288 288 281 279 282 281 281 274 272 270 270 266 268 269 272 273 271 272 274 275 277 278 278 279 279 279 279
293 293 294 294 294 295 296 299 299 299 300 301 301 301 301 301 301 299 291 291 286 280 274 278 283 284 287 288 285 285 283 282 281 279 272 270 270 275 270 273 272 274 274 270 271 274 275 276 277 279 279 279 278 278
294 294 294 294 294 295 296 297 299 299 299 300 300 301 301 301 301 299 295 292 290 281 272 273 280 283 285 285 284 283 282 280 276 273 270 270 275 273 272 273 270 274 272 271 269 276 276 276 278 279 278 278 278 277
294 294 294 294 294 294 296 297 298 298 299 300 300 300 301 300 300 295 285 293 294 291 279 270 278 278 281 282 282 281 281 278 275 274 270 274 278 276 266 264 276 276 276 278 276 278 277 278 278 278 277 277 277 276
293 293 293 294 294 294 295 297 298 298 298 299 300 300 300 300 297 287 285 289 296 293 283 276 273 277 280 279 277 277 280 277 277 274 270 276 276 277 266 267 276 277 278 278 278 277 276 276 277 277 277 277 275 273
292 292 293 293 293 294 296 296 296 298 298 298 298 299 299 300 297 288 292 296 296 286 284 276 267 275 281 279 278 277 275 275 276 276 276 275 278 276 270 275 277 279 278 277 278 278 280 276 276 275 274 272 270 272
292 292 292 292 293 294 295 296 297 297 298 298 298 298 294 289 284 285 294 296 293 286 279 275 268 268 279 279 279 280 282 275 281 275 274 278 273 271 275 276 276 278 277 277 274 275 274 274 277 272 270 267 270 271
291 292 292 293 293 294 295 296 298 297 297 297 293 285 282 285 293 295 289 284 283 283 282 275 263 266 278 277 276 274 272 271 271 271 277 276 269 278 278 277 279 278 278 275 270 269 264 267 272 272 270 271 272 268
291 291 291 292 293 291 296 296 297 297 297 289 283 281 283 293 284 279 278 277 278 276 279 274 266 270 273 269 272 277 273 272 265 265 270 264 264 277 280 279 279 278 277 274 276 275 272 272 272 272 268 264 264 262
291 291 290 292 291 293 293 295 296 293 285 287 284 287 286 281 277 275 274 273 269 268 266 274 271 269 268 271 271 273 270 269 263 264 268 260 271 278 273 277 279 274 272 269 266 269 265 266 264 264 262 259 257 256
290 291 291 291 293 292 293 295 295 293 290 286 282 279 278 277 271 270 266 265 269 264 272 270 267 271 269 273 272 271 269 268 271 269 266 267 275 266 263 264 262 259 262 261 259 259 259 258 257 257 254 253 252 249
289 290 290 290 290 291 289 293 295 290 284 278 275 271 272 270 271 270 263 264 267 264 271 268 272 270 268 270 272 267 268 268 266 265 262 267 258 256 257 256 255 254 257 258 256 256 256 255 253 252 252 251 251 249
289 289 290 289 291 291 291 290 289 285 279 275 274 269 269 265 263 260 259 260 262 263 269 268 267 272 268 271 271 269 266 265 265 262 260 254 254 254 254 253 251 252 253 252 251 253 253 252 251 247 245 246 247 247
286 286 286 288 290 291 291 288 284 283 278 274 269 265 262 264 262 263 260 263 267 270 268 269 267 268 267 269 266 266 265 262 262 252 250 252 252 252 252 251 250 249 249 250 250 250 250 251 250 246 244 245 246 248
284 278 286 286 286 285 283 278 278 270 270 269 264 254 255 259 261 258 260 267 270 272 267 270 268 268 271 268 267 268 263 258 252 254 253 252 252 254 254 253 251 250 248 249 248 246 246 246 247 249 250 246 248 248
272 275 284 284 277 275 270 266 270 268 262 257 259 255 254 254 256 259 260 262 266 269 268 269 272 267 267 266 266 259 258 257 256 254 253 252 252 251 253 251 250 250 250 249 248 246 247 250 253 252 252 249 247 242
271 277 280 281 274 263 261 260 261 260 256 256 258 259 256 255 258 260 259 261 261 262 262 264 265 263 257 253 253 254 253 254 254 253 252 250 250 249 250 250 250 249 248 248 248 249 250 251 250 249 246 246 248 244
280 280 279 276 272 262 258 257 259 260 255 256 258 258 258 257 257 257 257 257 259 258 252 252 249 249 250 251 252 251 252 254 254 253 253 252 250 249 249 249 250 250 250 248 247 248 245 247 246 245 244 245 245 246
272 272 273 263 257 256 253 253 253 254 257 256 256 258 255 255 253 252 252 253 250 246 248 248 249 250 251 251 252 251 252 252 251 252 252 250 252 251 251 251 252 251 249 251 251 251 251 248 245 243 243 243 241 241
266 272 261 264 257 252 253 254 252 254 254 251 253 254 251 252 250 250 252 247 246 245 245 245 246 248 249 250 250 251 251 251 252 253 254 253 250 251 251 251 252 252 252 252 251 251 251 249 247 245 243 244 244 244
265 264 260 257 254 252 250 256 252 252 250 250 250 251 250 249 249 253 247 247 246 247 247 247 248 249 249 250 251 251 251 251 250 250 250 250 251 251 251 250 251 251 250 250 250 249 248 250 249 248 244 245 244 245
260 252 251 250 251 248 252 252 254 252 252 251 251 249 248 248 252 249 243 244 247 250 249 248 248 249 251 251 250 250 249 250 250 250 249 250 250 249 250 250 250 250 250 249 248 247 245 245 248 246 245 244 243 244
252 245 248 246 250 249 249 249 250 251 248 248 248 248 248 249 247 246 244 246 248 248 248 248 247 248 248 249 251 251 250 249 250 249 249 250 249 248 248 248 247 248 248 247 247 244 244 245 246 245 245 244 245 245
243 243 244 244 246 246 246 246 246 246 248 246 246 248 250 249 245 243 244 246 246 247 247 246 245 245 247 248 247 249 249 249 249 251 250 250 250 249 249 248 248 249 244 243 242 243 244 246 246 247 248 248 250 248
243 242 244 247 246 247 247 249 249 246 244 244 243 247 248 244 242 243 246 247 246 248 249 249 246 245 246 248 249 251 251 250 251 251 250 251 250 249 250 249 248 248 245 244 247 249 249 249 250 250 250 249 248 247
243 242 242 244 244 245 244 244 242 241 242 242 244 243 242 242 241 246 248 250 250 250 250 251 249 249 249 250 251 252 252 253 251 250 251 251 251 252 251 250 248 257 250 248 249 249 249 250 250 250 251 251 251 250
243 243 244 245 244 242 240 240 240 241 241 241 245 244 244 247 247 247 249 251 252 251 250 249 250 252 252 252 253 252 252 251 251 250 249 249 249 249 253 252 253 253 253 251 256 258 257 255 254 253 252 251 250 248
243 243 245 244 242 240 241 240 241 242 242 243 245 248 248 248 250 252 251 251 250 249 250 250 250 250 249 249 249 250 251 251 250 248 245 245 249 252 252 253 253 253 252 251 252 252 255 253 253 250 250 248 248 247
242 243 245 244 243 243 241 241 241 242 244 246 247 246 245 246 249 251 250 250 250 249 248 248 248 249 248 247 246 246 246 247 248 247 249 250 250 251 250 252 253 253 249 248 248 248 249 249 249 249 248 247 246 247
244 241 242 242 242 243 242 242 243 244 245 245 245 245 245 246 245 247 250 250 248 247 248 247 246 246 247 242 243 246 248 244 246 247 247 248 249 250 249 250 249 249 247 247 245 245 246 245 245 244 244 243 243 243
243 244 245 245 243 243 243 243 245 244 245 244 245 245 245 247 245 248 250 251 248 246 246 245 244 243 245 241 242 244 244 242 243 250 250 252 251 252 250 248 247 244 244 243 244 244 243 242 243 242 242 242 241 242
Wind_Speed
26 26 25 24 21 23 26 23 20 21 21 18 18 17 18 18 21 6 2 4 4 2 3 4 3 4 2 2 4 5 5 1 2 3 3 4 3 4 3 2 6 8 10 5 2 3 11 8 4 9 6 2 6 6
24 26 26 26 26 20 27 24 21 20 21 20 18 19 18 19 18 10 3 2 2 3 3 1 4 3 0 4 6 3 2 4 4 4 1 4 3 1 2 5 2 4 7 8 10 7 1 10 5 7 5 7 7 8
25 26 27 27 26 25 23 28 24 20 20 21 20 20 20 19 19 12 3 4 4 3 3 1 5 2 3 5 3 7 1 3 3 2 4 2 4 4 6 6 1 5 3 2 3 4 6 10 5 1 6 8 6 6
27 29 27 28 27 28 24 25 27 24 22 21 21 21 20 20 20 17 5 4 4 3 3 4 1 5 2 5 3 3 6 6 6 2 3 3 3 4 3 1 3 4 8 6 3 2 1 6 7 8 8 6 4 5
29 30 31 30 27 27 28 23 25 24 21 20 22 24 23 19 19 10 4 6 6 6 5 4 2 2 0 6 7 6 9 6 2 3 3 2 2 4 1 2 6 7 8 6 6 8 6 6 10 10 8 8 9 9
25 26 25 30 27 27 25 22 24 23 20 20 23 22 22 22 22 6 3 5 8 4 4 1 2 3 3 4 7 8 5 3 3 5 3 1 1 3 4 4 5 6 7 7 6 6 7 7 5 7 9 10 9 8
17 18 20 26 27 27 24 22 23 24 20 16 20 17 20 23 12 4 4 4 21 9 4 2 3 3 2 4 2 2 2 2 4 3 2 4 3 5 3 9 5 8 8 6 8 7 4 6 8 10 9 9 6 2
14 16 17 18 21 23 23 21 21 21 20 15 13 18 18 17 12 3 1 10 14 4 4 4 3 1 2 3 3 2 2 2 2 3 2 3 3 2 6 5 4 9 8 10 13 11 14 3 4 5 5 5 5 7
12 9 8 12 14 22 22 20 21 21 23 20 18 13 5 3 3 2 10 11 3 3 5 3 7 6 3 3 2 2 2 3 2 3 4 5 4 8 10 11 9 15 13 14 5 10 7 8 12 4 6 3 7 8
16 11 14 12 13 13 22 20 27 23 21 23 11 3 3 3 11 18 4 4 2 3 2 3 2 4 3 1 2 4 2 4 4 5 4 5 5 21 8 12 14 11 14 6 4 4 1 5 10 8 11 7 10 4
16 11 11 10 5 6 16 20 22 23 20 5 3 3 2 13 4 3 3 3 2 4 4 3 5 5 2 4 4 1 3 3 3 7 7 3 6 18 15 18 15 11 10 11 9 7 8 7 7 8 5 4 5 6
13 4 8 9 8 9 9 10 21 15 3 9 8 6 3 3 3 5 5 3 3 7 2 5 4 4 1 3 4 3 4 3 6 4 4 3 11 16 5 12 14 3 4 5 1 4 5 6 3 5 6 7 5 8
8 9 7 10 14 3 6 18 20 26 15 4 4 5 4 3 5 7 6 0 5 4 5 4 1 4 2 1 3 3 5 6 5 4 5 8 13 5 6 5 1 4 6 8 6 7 8 6 6 5 9 6 9 9
8 6 7 8 9 7 5 8 31 17 6 3 4 6 4 4 4 4 5 6 3 4 9 5 4 4 3 3 4 5 4 4 4 5 9 5 7 8 7 4 4 2 4 8 8 8 9 9 8 8 8 5 9 8
15 18 18 14 15 15 15 12 10 4 3 4 4 4 2 2 4 2 1 1 2 2 5 4 4 3 1 3 3 4 3 4 6 7 4 3 8 7 8 7 5 3 4 6 4 7 8 8 9 8 6 5 7 7
8 11 10 17 19 17 12 9 7 3 3 4 4 4 2 4 3 2 2 2 1 2 3 3 4 4 4 4 4 7 7 8 4 2 3 4 6 5 5 5 4 3 5 5 6 5 8 7 7 7 5 5 4 4
15 5 16 14 13 13 21 5 4 7 5 5 4 4 2 3 4 2 1 2 2 2 2 2 4 5 2 1 3 2 2 1 1 1 1 3 4 6 4 4 5 4 6 6 7 7 5 5 7 5 7 2 3 4
5 5 15 13 7 7 5 8 4 5 6 4 4 4 3 2 2 3 3 4 3 2 2 2 3 1 1 3 3 3 3 1 1 3 3 5 6 5 4 4 5 4 4 5 7 5 5 4 6 5 7 4 4 3
3 7 18 15 8 6 5 6 4 5 2 1 2 2 3 2 2 3 3 4 2 1 3 4 4 3 3 3 3 3 4 5 4 3 3 4 3 3 4 5 6 5 3 4 4 3 4 4 4 4 4 3 3 1
14 20 16 19 11 5 6 4 3 5 3 2 2 3 3 3 1 3 6 7 5 4 9 7 4 2 2 2 3 3 5 6 4 2 0 1 2 2 4 3 3 4 4 5 5 3 2 4 3 1 2 3 3 1
10 9 14 8 6 8 6 3 5 3 2 4 2 2 3 3 4 6 6 6 8 7 4 3 3 3 4 4 2 2 4 4 3 2 2 1 0 1 2 3 4 3 2 2 3 3 3 3 1 1 1 1 2 2
2 11 4 6 6 5 6 3 4 1 3 1 3 3 4 4 4 4 3 9 5 2 1 2 3 3 5 3 4 3 4 7 4 2 2 4 2 1 1 2 2 2 2 2 2 2 2 2 2 2 1 1 2 2
8 6 6 7 7 8 3 1 5 5 5 1 2 4 4 3 1 1 6 4 2 0 2 2 6 6 6 5 4 3 4 4 3 3 3 3 3 3 3 2 1 2 2 1 1 2 1 1 2 2 1 1 1 2
12 9 8 6 7 2 3 5 3 3 3 4 4 4 3 2 2 5 5 3 2 4 5 8 6 5 2 2 4 3 5 3 1 2 4 2 3 3 2 1 1 1 1 2 2 2 1 1 1 1 1 1 1 1
10 12 7 8 5 6 7 5 5 5 4 3 4 3 2 1 5 5 3 3 5 5 6 6 5 5 4 3 3 3 3 4 3 3 4 3 2 1 2 2 1 1 2 3 1 1 0 1 1 1 1 1 2 4
12 6 7 6 5 5 4 4 5 4 3 4 4 2 2 4 6 5 2 4 4 3 6 6 5 5 4 4 4 4 5 4 3 2 2 2 3 2 1 2 2 3 1 1 3 2 2 2 2 2 3 4 5 3
8 6 4 1 2 3 3 2 3 5 6 6 4 5 4 7 5 2 2 1 2 3 6 4 2 3 3 5 5 3 3 2 3 2 2 2 2 1 2 2 2 3 1 3 3 2 2 2 2 3 4 3 4 4
3 5 6 7 4 5 4 5 6 6 4 4 1 7 5 4 1 3 2 5 6 5 5 3 1 1 3 4 4 5 3 3 2 2 2 2 1 2 1 1 2 4 1 2 3 3 3 3 4 5 5 5 4 3
4 5 3 5 4 6 7 5 4 3 3 2 3 4 4 3 1 2 3 4 4 4 6 7 7 6 5 3 5 7 8 8 8 8 7 4 3 4 6 4 4 3 2 3 7 7 5 6 5 4 3 3 2 2
5 4 3 5 7 6 3 2 3 3 2 2 1 9 7 4 5 4 5 6 7 7 6 5 6 7 7 8 7 7 5 6 7 5 2 3 5 7 6 5 5 5 3 3 4 4 7 4 5 3 3 2 2 3
3 3 4 5 5 2 2 3 3 2 2 4 4 5 4 3 1 7 7 5 3 3 5 6 7 8 8 7 7 7 5 3 6 6 6 5 6 6 4 6 5 6 3 3 3 3 3 3 3 6 6 6 7 7
4 5 3 4 1 2 2 3 3 2 3 3 3 1 1 2 3 2 6 5 4 5 6 5 5 5 6 3 3 3 4 4 5 7 8 7 6 6 5 5 4 3 3 3 3 3 4 5 5 5 7 9 8 8
2 3 4 3 2 2 4 3 1 2 2 2 2 1 1 2 3 2 0 6 4 3 3 3 4 5 6 4 4 3 4 3 8 12 12 13 13 11 7 3 3 3 4 4 5 5 7 8 7 8 8 8 9 9
Wind_Direction
269 266 269 263 275 280 270 247 247 240 230 236 229 220 218 207 194 148 148 185 129 153 243 197 218 157 112 163 153 158 117 122 105 182 155 167 144 186 120 135 172 160 170 199 119 187 257 157 65 166 200 87 151 174
271 276 271 264 264 267 276 246 246 240 237 235 229 225 222 211 203 165 129 176 127 119 218 227 259 267 173 201 130 232 81 152 147 107 95 103 134 154 124 210 180 231 187 180 187 203 271 196 185 192 153 146 193 179
268 270 264 264 261 261 262 265 245 240 240 234 231 231 219 210 205 170 127 148 82 92 306 268 225 232 173 228 222 130 319 162 163 90 145 132 162 132 159 234 155 242 143 182 102 194 212 207 233 259 185 202 193 208
268 264 262 262 261 257 255 252 246 236 239 229 221 217 231 213 203 173 151 162 100 104 166 268 340 230 192 166 161 79 118 88 94 70 110 136 149 189 188 169 196 195 128 157 262 237 58 273 227 221 215 226 199 194
273 265 257 251 244 252 252 248 240 238 235 221 221 214 215 216 214 179 143 185 164 140 189 260 308 259 330 154 135 112 124 114 120 88 94 174 119 111 5 34 247 180 158 173 211 199 173 208 204 211 211 218 224 214
284 270 251 240 234 242 245 236 240 235 228 224 220 217 203 195 203 192 153 192 181 104 106 187 294 38 60 117 127 140 134 98 103 133 185 170 190 108 136 219 230 151 187 170 218 201 196 222 215 176 200 218 228 210
323 294 260 232 230 232 237 235 237 231 212 215 203 209 215 208 201 174 186 162 179 146 159 200 302 0 54 102 53 68 33 130 122 135 118 135 186 140 115 239 106 164 190 206 228 126 238 179 233 188 197 216 202 192
315 306 259 238 236 232 236 232 222 211 196 184 200 202 206 203 155 141 204 149 155 119 163 171 228 199 205 133 123 172 98 49 5 130 101 128 101 104 239 240 222 218 211 229 229 200 229 116 217 199 175 138 173 216
321 316 295 253 253 230 236 218 220 209 196 184 184 203 187 144 171 146 148 162 108 163 173 134 144 193 179 129 133 127 132 146 157 179 189 140 164 217 227 208 205 215 195 219 215 200 214 214 246 211 169 171 210 231
320 309 320 280 241 245 227 223 204 189 186 183 163 143 192 182 153 134 135 155 143 201 136 115 78 155 163 126 126 121 115 180 181 229 137 200 233 241 207 212 223 216 213 166 143 263 59 254 225 220 205 213 214 194
319 317 326 331 305 237 226 190 198 181 173 159 139 106 206 164 69 54 143 191 148 172 166 127 155 139 275 130 161 210 157 150 149 240 161 199 259 245 227 232 234 227 210 208 218 234 177 186 196 216 210 133 120 116
334 352 344 353 309 257 229 208 190 176 129 149 127 103 93 98 133 170 178 119 130 200 223 148 192 162 192 115 109 177 159 119 220 153 130 226 251 252 200 220 242 264 205 170 164 187 100 84 53 100 103 106 94 101
359 10 357 19 5 181 284 215 201 128 129 66 82 137 135 147 170 184 152 289 174 172 173 159 140 125 65 109 102 146 173 206 114 168 211 225 252 34 1 323 47 28 80 103 90 83 90 87 62 80 107 94 104 93
28 34 49 60 42 36 52 251 149 116 86 98 135 135 163 164 184 176 184 166 215 121 143 127 118 138 161 131 143 160 195 111 189 192 221 241 14 331 333 328 329 10 84 109 109 106 101 98 86 72 83 105 117 113
61 43 36 32 32 40 82 118 73 71 88 89 86 118 139 73 47 108 127 79 333 138 116 79 57 97 133 172 184 112 165 197 198 221 236 313 324 332 340 343 348 67 81 80 78 98 99 102 102 93 53 56 85 102
53 52 32 30 28 41 76 48 25 53 70 97 82 102 357 72 338 53 61 93 235 159 72 67 129 130 199 174 149 205 164 209 238 225 248 308 325 348 346 354 358 45 74 91 77 82 95 100 107 112 88 60 69 112
61 23 9 18 19 35 31 56 44 40 35 35 31 24 47 75 134 151 100 56 332 66 139 147 156 194 87 182 214 35 203 352 316 320 308 354 345 347 354 31 14 31 73 90 91 77 82 99 110 93 94 54 91 76
44 318 20 19 26 30 31 24 65 58 62 16 53 346 29 20 56 25 9 0 24 95 89 124 112 79 140 184 134 46 18 342 87 39 5 344 6 8 28 78 51 33 68 87 98 100 107 110 99 93 110 110 100 58
82 40 25 20 45 82 65 21 21 91 68 28 110 77 75 74 35 358 341 343 1 224 73 27 92 78 84 33 1 357 352 350 348 356 5 350 1 57 63 62 74 69 66 40 40 43 65 66 97 114 121 135 109 60
58 37 27 31 39 65 57 15 0 75 68 53 45 43 55 54 358 11 23 15 31 33 40 38 43 42 5 359 334 299 296 313 302 321 327 0 338 23 57 97 87 91 81 72 61 90 65 67 38 44 94 104 108 197
33 356 21 51 43 55 79 7 46 40 74 67 346 33 47 26 33 22 16 356 56 32 49 21 353 318 307 285 303 301 308 327 323 315 317 281 331 71 77 89 97 82 101 145 123 100 102 110 147 62 88 177 224 232
351 19 48 25 69 40 72 11 109 65 56 89 47 40 40 41 27 15 356 46 55 3 347 297 293 309 315 331 329 315 301 301 286 288 321 110 129 148 125 115 128 115 116 106 98 130 135 139 143 158 173 252 237 247
27 31 47 17 67 41 313 353 65 10 80 12 39 60 35 49 345 105 73 70 112 237 260 276 298 289 276 293 309 5 347 353 28 11 15 48 53 51 80 68 58 124 135 144 125 139 140 157 167 165 157 66 38 1
33 45 31 39 29 33 350 28 36 51 48 42 57 65 27 23 354 59 69 43 330 341 357 350 343 339 348 345 16 2 346 343 28 39 21 42 62 30 20 95 100 60 43 118 141 144 154 185 155 101 94 82 359 296
66 0 17 8 9 20 30 19 9 42 61 15 79 60 3 353 71 57 66 359 340 354 355 352 355 2 357 334 348 360 4 10 3 41 15 42 93 32 354 276 242 218 171 120 133 148 223 196 186 169 201 182 269 287
67 353 37 351 8 33 350 38 26 10 8 61 42 334 29 66 63 52 27 327 323 329 345 346 344 341 346 358 315 337 334 332 309 53 28 6 27 72 44 24 24 347 227 148 130 178 242 230 223 236 266 272 271 277
52 355 349 140 324 300 29 37 27 48 49 28 351 11 43 64 58 331 308 323 306 302 313 300 247 243 267 308 305 304 298 322 10 24 1 25 29 21 22 29 358 265 273 203 236 226 259 283 276 265 266 271 243 243
71 28 17 339 38 8 42 41 32 24 2 348 311 37 69 53 68 319 324 322 319 313 310 318 273 294 309 304 321 344 338 346 82 112 111 127 124 62 27 297 270 333 350 234 230 238 234 239 247 253 252 260 272 248
34 344 296 32 51 50 42 25 13 0 334 303 55 73 84 59 333 309 305 335 353 24 36 28 19 15 15 7 27 28 27 24 34 42 40 18 342 341 354 343 338 337 335 335 327 324 261 239 245 244 271 286 302 308
2 349 7 50 45 34 359 349 335 327 285 280 351 101 93 78 43 25 27 26 29 30 25 33 27 25 22 12 0 4 36 36 31 24 340 331 327 320 323 329 333 329 319 322 323 323 338 8 339 348 329 312 297 291
318 329 64 43 70 9 316 317 272 259 327 40 41 86 95 131 118 45 25 12 7 25 30 26 25 22 12 7 360 343 338 359 5 346 330 322 318 311 321 328 323 321 329 334 334 326 315 324 302 306 301 294 288 288
0 37 80 89 57 321 324 5 359 55 10 46 29 82 86 85 77 46 5 5 14 21 12 4 357 342 344 289 299 308 354 305 325 322 324 321 308 315 307 306 312 6 353 337 320 302 301 298 290 281 284 283 282 279
24 27 45 84 69 36 8 341 27 77 41 57 35 38 52 77 90 131 27 32 11 310 326 310 294 285 310 284 293 286 326 291 309 327 322 323 327 323 315 306 5 336 318 302 293 288 289 285 284 282 281 277 279 282